Location: Cannifist
(18.2333°N, 63.0167°W)
Time: 17:30:01
(UTC+00:00)

Cosmos 1500 - Pass Details

Date: 27 February 2020
Orbit: 498 x 521 km, 82.5° (Epoch: 04 April)

Event Time Altitude Azimuth Distance (km) Brightness Sun altitude
Rises 23:41:47 0° 185° (S) 2,610 6.9 -20.8°
Reaches altitude 10° 23:43:54 10° 185° (S) 1,730 5.9 -21.3°
Maximum altitude 23:47:41 86° 271° (W) 520 3.1 -22.2°
Enters shadow 23:48:23 58° 359° (N) 603 3.4 -22.3°
